| time (UTC) | temp F | wind direction | speed knots | gust knots | rain 1hr in | rain 24hr in | rain mn in | humidity % | barometer mb |
| 20260502201340 | 52 | 192 | 0.0 | 0.9 | 0.00 | 0.19 | 0.19 | 78 | 1009.7 |
| 20260502200338 | 52 | 192 | 0.0 | 1.7 | 0.00 | 0.19 | 0.19 | 77 | 1009.7 |
| 20260502195337 | 53 | 192 | 0.9 | 4.3 | 0.00 | 0.19 | 0.19 | 76 | 1009.8 |
| 20260502194338 | 53 | 281 | 0.9 | 2.6 | 0.00 | 0.19 | 0.19 | 75 | 1009.9 |
| 20260502193337 | 54 | 282 | 1.7 | 3.5 | 0.00 | 0.19 | 0.19 | 74 | 1009.9 |
| 20260502192337 | 55 | 316 | 0.9 | 2.6 | 0.00 | 0.19 | 0.19 | 73 | 1009.9 |
| 20260502191338 | 55 | 170 | 0.9 | 3.5 | 0.00 | 0.19 | 0.19 | 69 | 1009.7 |
| 20260502190812 | 55 | 191 | 2.6 | 5.2 | 0.00 | 0.19 | 0.19 | 65 | 1009.7 |
| 20260502185326 | 55 | 143 | 3.5 | 7.8 | 0.00 | 0.19 | 0.19 | 66 | 1009.8 |
| 20260502184804 | 56 | 214 | 3.5 | 7.8 | 0.00 | 0.19 | 0.19 | 66 | 1009.9 |
| 20260502183327 | 56 | 209 | 3.5 | 7.0 | 0.00 | 0.19 | 0.19 | 66 | 1009.9 |
| 20260502182326 | 56 | 248 | 2.6 | 7.0 | 0.00 | 0.19 | 0.19 | 67 | 1010.1 |
| 20260502181327 | 56 | 207 | 3.5 | 8.7 | 0.00 | 0.19 | 0.19 | 69 | 1010.2 |
| 20260502180804 | 56 | 193 | 4.3 | 9.6 | 0.00 | 0.19 | 0.19 | 70 | 1010.2 |
| 20260502170303 | 54 | 149 | 3.5 | 8.7 | 0.00 | 0.19 | 0.19 | 76 | 1010.4 |
| 20260502163305 | 51 | 148 | 1.7 | 3.5 | 0.00 | 0.19 | 0.19 | 84 | 1010.7 |
| 20260502162257 | 51 | 150 | 0.9 | 2.6 | 0.00 | 0.19 | 0.19 | 85 | 1011.2 |
| 20260502161257 | 50 | 204 | 2.6 | 5.2 | 0.00 | 0.19 | 0.19 | 85 | 1011.6 |
| 20260502160255 | 50 | 225 | 1.7 | 3.5 | 0.00 | 0.19 | 0.19 | 86 | 1011.6 |
| 20260502152246 | 48 | 154 | 0.0 | 2.6 | 0.00 | 0.19 | 0.19 | 88 | 1011.3 |
| 20260502151245 | 48 | 164 | 0.9 | 2.6 | 0.00 | 0.19 | 0.19 | 88 | 1011.6 |
| 20260502150243 | 47 | 165 | 0.9 | 2.6 | 0.00 | 0.19 | 0.19 | 89 | 1011.6 |
| 20260502130232 | 44 | 52 | 0.9 | 2.6 | 0.11 | 0.19 | 0.19 | 91 | 1012.0 |
| 20260502123653 | 44 | 198 | 0.0 | 0.0 | 0.07 | 0.13 | 0.14 | 91 | 1012.5 |
| 20260502122218 | 44 | 198 | 0.0 | 0.0 | 0.08 | 0.12 | 0.12 | 91 | 1012.3 |
| 20260502121217 | 44 | 198 | 0.0 | 0.0 | 0.08 | 0.10 | 0.10 | 90 | 1012.3 |
| 20260502120654 | 44 | 198 | 0.0 | 0.0 | 0.06 | 0.08 | 0.08 | 90 | 1012.3 |
| 20260502115217 | 44 | 198 | 0.0 | 0.0 | 0.06 | 0.08 | 0.08 | 90 | 1012.2 |
| 20260502114654 | 44 | 198 | 0.0 | 0.0 | 0.06 | 0.08 | 0.08 | 90 | 1012.8 |
| 20260502113211 | 44 | 198 | 0.0 | 0.0 | 0.04 | 0.06 | 0.06 | 90 | 1012.8 |
| 20260502112211 | 44 | 198 | 0.0 | 0.0 | 0.02 | 0.04 | 0.04 | 90 | 1012.3 |
| 20260502111212 | 44 | 198 | 0.0 | 0.0 | 0.00 | 0.02 | 0.02 | 90 | 1011.3 |
| 20260502110208 | 43 | 198 | 0.0 | 0.0 | 0.00 | 0.02 | 0.02 | 89 | 1011.3 |
| 20260502105210 | 43 | 198 | 0.0 | 0.0 | 0.01 | 0.02 | 0.02 | 89 | 1011.3 |
| 20260502104208 | 43 | 198 | 0.0 | 0.0 | 0.01 | 0.02 | 0.02 | 89 | 1011.3 |
| 20260502103209 | 43 | 198 | 0.0 | 0.0 | 0.02 | 0.02 | 0.02 | 88 | 1011.3 |
| 20260502102649 | 43 | 198 | 0.0 | 0.0 | 0.02 | 0.02 | 0.02 | 88 | 1011.3 |
| 20260502101209 | 43 | 198 | 0.0 | 0.0 | 0.02 | 0.02 | 0.02 | 88 | 1011.2 |
| 20260502100209 | 43 | 198 | 0.0 | 0.0 | 0.02 | 0.02 | 0.02 | 87 | 1011.2 |
| 20260502091208 | 44 | 181 | 0.0 | 0.0 | 0.00 | 0.00 | 0.00 | 84 | 1010.7 |
| 20260502090206 | 44 | 181 | 0.0 | 0.0 | 0.00 | 0.00 | 0.00 | 84 | 1010.7 |
| 20260502071137 | 44 | 182 | 0.0 | 2.6 | 0.00 | 0.00 | 0.00 | 80 | 1011.2 |
| 20260502070138 | 44 | 182 | 1.7 | 5.2 | 0.00 | 0.00 | 0.00 | 80 | 1011.2 |
| 20260502065136 | 44 | 27 | 1.7 | 6.1 | 0.00 | 0.00 | 0.00 | 81 | 1011.3 |
| 20260502064120 | 43 | 183 | 0.0 | 2.6 | 0.00 | 0.00 | 0.00 | 81 | 1011.3 |
| 20260502063122 | 43 | 34 | 0.0 | 1.7 | 0.00 | 0.00 | 0.00 | 80 | 1011.3 |
| 20260502062121 | 43 | 33 | 0.0 | 1.7 | 0.00 | 0.00 | 0.00 | 80 | 1010.8 |
| 20260502061557 | 43 | 33 | 0.9 | 1.7 | 0.00 | 0.00 | 0.00 | 79 | 1011.0 |
| 20260502060121 | 43 | 33 | 0.0 | 0.9 | 0.00 | 0.00 | 0.00 | 79 | 1011.0 |
| 20260502055122 | 43 | 33 | 0.0 | 0.0 | 0.00 | 0.00 | 0.00 | 79 | 1011.2 |
| 20260502054119 | 43 | 33 | 0.0 | 0.9 | 0.00 | 0.00 | 0.00 | 78 | 1011.1 |
| 20260502053550 | 44 | 33 | 0.0 | 0.0 | 0.00 | 0.00 | 0.00 | 78 | 1011.1 |
| 20260502052105 | 44 | 33 | 0.0 | 0.0 | 0.00 | 0.00 | 0.00 | 77 | 1011.2 |
| 20260502051104 | 44 | 33 | 0.0 | 0.0 | 0.00 | 0.00 | 0.00 | 76 | 1011.2 |
| 20260502050106 | 44 | 33 | 0.9 | 4.3 | 0.00 | 0.00 | 0.00 | 76 | 1011.2 |
| 20260502045553 | 44 | 33 | 0.9 | 4.3 | 0.00 | 0.00 | 0.00 | 76 | 1011.0 |
| 20260502044055 | 44 | 260 | 0.0 | 0.0 | 0.00 | 0.00 | 0.00 | 75 | 1011.3 |
| 20260502043054 | 44 | 260 | 0.0 | 1.7 | 0.00 | 0.00 | 0.00 | 76 | 1011.3 |
| 20260502042054 | 44 | 260 | 0.0 | 0.0 | 0.00 | 0.00 | 0.00 | 75 | 1011.3 |
| 20260502041054 | 44 | 260 | 0.0 | 0.0 | 0.00 | 0.00 | 0.00 | 75 | 1011.3 |
| 20260502040051 | 44 | 260 | 0.0 | 0.0 | 0.00 | 0.00 | 0.00 | 75 | 1011.3 |
| 20260502035051 | 44 | 260 | 0.0 | 0.0 | 0.00 | 0.00 | 0.00 | 75 | 1011.2 |
| 20260502034052 | 44 | 260 | 0.0 | 0.0 | 0.00 | 0.00 | 0.00 | 75 | 1011.2 |
| 20260502033051 | 44 | 260 | 0.0 | 0.0 | 0.00 | 0.00 | 0.00 | 73 | 1011.2 |
| 20260502032051 | 44 | 260 | 0.0 | 0.0 | 0.00 | 0.00 | 0.00 | 74 | 1011.1 |
| 20260502031043 | 44 | 260 | 0.0 | 0.0 | 0.00 | 0.00 | 0.00 | 73 | 1010.8 |
| 20260502030044 | 44 | 260 | 0.0 | 0.0 | 0.00 | 0.00 | 0.00 | 72 | 1010.8 |
| 20260502025043 | 44 | 260 | 0.0 | 0.0 | 0.00 | 0.00 | 0.00 | 72 | 1010.9 |
| 20260502024043 | 44 | 260 | 0.0 | 1.7 | 0.00 | 0.00 | 0.00 | 70 | 1010.9 |
| 20260502023041 | 44 | 260 | 0.0 | 1.7 | 0.00 | 0.00 | 0.00 | 70 | 1010.9 |
| 20260502022040 | 45 | 266 | 0.0 | 0.0 | 0.00 | 0.00 | 0.00 | 68 | 1011.1 |
| 20260502021040 | 45 | 266 | 0.9 | 3.5 | 0.00 | 0.00 | 0.00 | 69 | 1011.1 |
| 20260502020041 | 46 | 203 | 0.0 | 0.0 | 0.00 | 0.00 | 0.00 | 66 | 1011.1 |
| 20260502015037 | 46 | 203 | 0.0 | 0.0 | 0.00 | 0.00 | 0.00 | 65 | 1010.9 |
| 20260502014039 | 46 | 203 | 0.0 | 0.0 | 0.00 | 0.00 | 0.00 | 64 | 1010.9 |
| 20260502013508 | 47 | 203 | 0.0 | 0.0 | 0.00 | 0.00 | 0.00 | 63 | 1010.9 |
| 20260502012035 | 48 | 203 | 0.0 | 0.0 | 0.00 | 0.00 | 0.00 | 61 | 1010.8 |
| 20260502011033 | 49 | 203 | 0.0 | 0.0 | 0.00 | 0.00 | 0.00 | 59 | 1010.7 |
| 20260502010034 | 49 | 203 | 0.0 | 0.0 | 0.00 | 0.00 | 0.00 | 57 | 1010.5 |
| 20260502005031 | 50 | 203 | 0.0 | 0.0 | 0.00 | 0.00 | 0.00 | 56 | 1010.5 |
| 20260502004032 | 51 | 203 | 0.0 | 0.0 | 0.00 | 0.00 | 0.00 | 55 | 1010.3 |
| 20260502003958 | 52 | 203 | 0.0 | 0.0 | 0.00 | 0.00 | 0.00 | 54 | 1010.3 |
| 20260502002506 | 52 | 203 | 0.0 | 0.0 | 0.00 | 0.00 | 0.00 | 53 | 1010.2 |
| 20260502001031 | 53 | 203 | 0.0 | 0.0 | 0.00 | 0.00 | 0.00 | 49 | 1009.7 |
| 20260502000033 | 54 | 203 | 0.0 | 0.0 | 0.00 | 0.00 | 0.00 | 47 | 1009.7 |
| 20260501235456 | 55 | 203 | 0.0 | 0.0 | 0.00 | 0.00 | 0.00 | 46 | 1009.7 |
| 20260501234021 | 55 | 203 | 0.0 | 0.9 | 0.00 | 0.00 | 0.00 | 45 | 1009.4 |
| 20260501233021 | 56 | 203 | 0.0 | 2.6 | 0.00 | 0.00 | 0.00 | 44 | 1009.4 |
| 20260501232501 | 56 | 212 | 0.0 | 0.0 | 0.00 | 0.00 | 0.00 | 44 | 1009.2 |
| 20260501231021 | 57 | 212 | 0.0 | 0.9 | 0.00 | 0.00 | 0.00 | 42 | 1009.1 |
| 20260501230019 | 57 | 212 | 0.0 | 1.7 | 0.00 | 0.00 | 0.00 | 42 | 1009.1 |
| 20260501225019 | 57 | 216 | 0.9 | 2.6 | 0.00 | 0.00 | 0.00 | 40 | 1009.1 |
| 20260501224021 | 58 | 216 | 0.9 | 2.6 | 0.00 | 0.00 | 0.00 | 41 | 1009.0 |
| 20260501223458 | 58 | 291 | 0.9 | 3.5 | 0.00 | 0.00 | 0.00 | 39 | 1009.0 |
| 20260501222020 | 58 | 215 | 0.9 | 2.6 | 0.00 | 0.00 | 0.00 | 40 | 1008.8 |
| 20260501221020 | 59 | 71 | 1.7 | 7.0 | 0.00 | 0.00 | 0.00 | 40 | 1008.7 |
| 20260501220018 | 59 | 337 | 1.7 | 6.1 | 0.00 | 0.00 | 0.00 | 38 | 1008.7 |
| 20260501215018 | 59 | 120 | 1.7 | 4.3 | 0.00 | 0.00 | 0.00 | 37 | 1008.7 |
| 20260501214017 | 59 | 23 | 0.9 | 2.6 | 0.00 | 0.00 | 0.00 | 39 | 1008.6 |
| 20260501213018 | 59 | 301 | 1.7 | 5.2 | 0.00 | 0.00 | 0.00 | 38 | 1008.6 |
| 20260501212502 | 60 | 301 | 2.6 | 6.1 | 0.00 | 0.00 | 0.00 | 38 | 1008.6 |
| 20260501211015 | 60 | 301 | 1.7 | 6.1 | 0.00 | 0.00 | 0.00 | 38 | 1008.4 |
| 20260501210015 | 60 | 301 | 0.9 | 4.3 | 0.00 | 0.00 | 0.00 | 38 | 1008.1 |
| 20260501205014 | 60 | 301 | 2.6 | 6.1 | 0.00 | 0.00 | 0.00 | 39 | 1008.1 |
| 20260501204016 | 60 | 177 | 1.7 | 7.8 | 0.00 | 0.00 | 0.00 | 37 | 1008.2 |
| 20260501203015 | 61 | 301 | 2.6 | 6.1 | 0.00 | 0.00 | 0.00 | 37 | 1008.2 |